This is the latest recevied weather packets stored in our database for station/object KB1WCR. If no packets are shown the sender has not sent any weather packets the latest 10 day(s).
| Time | Temp. | Humidity | Pressure | Rain* | Wind** | Luminosity | Snow |
|---|---|---|---|---|---|---|---|
| 1778088355 | 17.78° C | 80% | 1006.6 hPa | 0 mm | - | 335 W/m² | - |
| 1778088046 | 17.78° C | 81% | 1006.5 hPa | 0 mm | - | 261 W/m² | - |
| 1778087743 | 17.78° C | 81% | 1006.8 hPa | 0 mm | - | 275 W/m² | - |
| 1778087440 | 17.78° C | 81% | 1006.8 hPa | 0 mm | - | 237 W/m² | - |
| 1778087138 | 17.78° C | 83% | 1006.9 hPa | 0 mm | - | 240 W/m² | - |
| 1778086830 | 17.78° C | 81% | 1007.1 hPa | 0 mm | - | 247 W/m² | - |
| 1778086528 | 17.78° C | 81% | 1007.2 hPa | 0 mm | - | 200 W/m² | - |
| 1778086224 | 17.78° C | 81% | 1007.1 hPa | 0 mm | - | 190 W/m² | - |
| 1778085921 | 17.78° C | 81% | 1007.1 hPa | 0 mm | - | 210 W/m² | - |
| 1778085619 | 17.78° C | 81% | 1007.2 hPa | 0 mm | - | 217 W/m² | - |
| 1778085315 | 17.78° C | 81% | 1007.4 hPa | 0 mm | - | 206 W/m² | - |
| 1778085010 | 17.78° C | 82% | 1007.7 hPa | 0 mm | - | 202 W/m² | - |
| 1778084707 | 17.78° C | 82% | 1007.7 hPa | 0 mm | - | 213 W/m² | - |
| 1778084404 | 17.22° C | 82% | 1007.8 hPa | 0 mm | - | 219 W/m² | - |
| 1778084101 | 17.22° C | 82% | 1007.9 hPa | 0 mm | - | 245 W/m² | - |
| 1778083798 | 17.22° C | 82% | 1008.2 hPa | 0 mm | - | 255 W/m² | - |
| 1778083496 | 17.22° C | 83% | 1008.1 hPa | 0 mm | - | 277 W/m² | - |
| 1778083193 | 17.22° C | 82% | 1008.4 hPa | 0 mm | - | 299 W/m² | - |
| 1778082891 | 17.22° C | 83% | 1008.4 hPa | 0 mm | - | 263 W/m² | - |
| 1778081783 | 17.22° C | 83% | 1008.3 hPa | 0 mm | - | 190 W/m² | - |
| 1778081480 | 17.22° C | 83% | 1008.6 hPa | 0 mm | - | 303 W/m² | - |
| 1778081177 | 16.67° C | 84% | 1008.3 hPa | 0 mm | - | 387 W/m² | - |
| 1778080875 | 16.67° C | 84% | 1008.6 hPa | 0 mm | - | 231 W/m² | - |
| 1778080573 | 16.67° C | 84% | 1008.6 hPa | 0 mm | - | 210 W/m² | - |
| 1778080270 | 16.67° C | 84% | 1008.6 hPa | 0 mm | - | 211 W/m² | - |
* Rain latest hour (hover to see other rain measurements)
** Current wind speed in m/s (hover to see current wind gust speed)